Meacham, OR

9:06 PM PST on December 16, 2017 (GMT -0800)
Meacham

Weather History for KMEH - April, 2013

Change the Weather History Date:

Thursday, April 25, 2013

  Actual Average Record
Temperature  
Mean Temperature 44 °F -  
Max Temperature 62 °F 54 °F 75 °F (2001)
Min Temperature 28 °F 28 °F 24 °F (2004)
Degree Days  
Heating Degree Days 20    
Moisture  
Dew Point 30 °F    
Average Humidity 59    
Maximum Humidity 92    
Minimum Humidity 31    
Precipitation  
Precipitation 0.00 in - - ()
Sea Level Pressure  
Sea Level Pressure 30.06 in    
Wind  
Wind Speed 1 mph (West)    
Max Wind Speed 7 mph    
Max Gust Speed -    
Visibility 10 miles    
Events      
Averages and records for this station are not official NWS values.
T = Trace of Precipitation, MM = Missing Value Source: NWS Daily Summary

Daily Weather History Graph

Daily Weather History Graph

Search for Another Location

Airport or City:

Trip Planner

Search our weather history database for the weather conditions in past years. The results will help you decide how hot, cold, wet, or windy it might be!

Date:

Astronomy

Apr. 25, 2013 Rise Set
Actual Time 5:50 AM PDT 7:53 PM PDT
Civil Twilight 5:18 AM PDT 8:25 PM PDT
Nautical Twilight 4:39 AM PDT 9:05 PM PDT
Astronomical Twilight 3:55 AM PDT 9:48 PM PDT
Moon 8:13 PM PDT (4/25) 5:36 AM PDT (4/25)
Length of Visible Light 15h 06m
Length of Day
14h 02m
Full, 100% of the Moon is Illuminated
Apr 25
Full
Apr 25
Full
May 2
Last Quarter
May 9
New
May 17
First Quarter

Hourly Weather History & Observations

Time (PDT) Temp. Dew Point Humidity Pressure Visibility Wind Dir Wind Speed Gust Speed Precip Events Conditions
12:56 AM 28.9 °F 27.0 °F 92% 30.04 in 10.0 mi Calm Calm - N/A   Clear
1:56 AM 28.9 °F 26.1 °F 89% 30.02 in 10.0 mi Calm Calm - N/A   Clear
2:56 AM 28.9 °F 26.1 °F 89% 30.01 in 10.0 mi Calm Calm - N/A   Clear
3:56 AM 28.9 °F 26.1 °F 89% 30.01 in 10.0 mi Calm Calm - N/A   Clear
4:56 AM 28.0 °F 25.0 °F 88% 30.01 in 10.0 mi Calm Calm - N/A   Clear
5:56 AM 28.0 °F 25.0 °F 88% 30.01 in 10.0 mi Calm Calm - N/A   Clear
7:56 AM 39.0 °F 30.9 °F 73% 30.03 in 10.0 mi Calm Calm - N/A   Clear
8:56 AM 51.1 °F 28.0 °F 41% 30.02 in 10.0 mi Calm Calm - N/A   Clear
9:56 AM 54.0 °F 27.0 °F 35% 30.03 in 10.0 mi Variable 4.6 mph - N/A   Clear
10:56 AM 55.9 °F 27.0 °F 33% 30.05 in 10.0 mi Variable 4.6 mph - N/A   Clear
11:56 AM 59.0 °F 30.0 °F 33% 30.05 in 10.0 mi Variable 5.8 mph - N/A   Clear
12:56 PM 60.1 °F 32.0 °F 35% 30.06 in 10.0 mi West 6.9 mph - N/A   Clear
1:56 PM 61.0 °F 30.9 °F 32% 30.06 in 10.0 mi Variable 6.9 mph - N/A   Clear
2:56 PM 60.1 °F 32.0 °F 35% 30.07 in 10.0 mi Variable 6.9 mph - N/A   Clear
3:56 PM 60.1 °F 28.9 °F 31% 30.07 in 10.0 mi Calm Calm - N/A   Clear
4:56 PM 61.0 °F 30.0 °F 31% 30.07 in 10.0 mi Variable 4.6 mph - N/A   Clear
5:56 PM 61.0 °F 32.0 °F 34% 30.08 in 10.0 mi Variable 3.5 mph - N/A   Clear
6:56 PM 59.0 °F 32.0 °F 36% 30.09 in 10.0 mi Calm Calm - N/A   Clear
7:56 PM 51.1 °F 36.0 °F 56% 30.09 in 10.0 mi Calm Calm - N/A   Clear
8:56 PM 45.0 °F 37.0 °F 74% 30.11 in 10.0 mi Calm Calm - N/A   Clear
9:56 PM 42.1 °F 36.0 °F 79% 30.12 in 10.0 mi Calm Calm - N/A   Clear
10:56 PM 39.0 °F 34.0 °F 82% 30.13 in 10.0 mi Calm Calm - N/A   Clear
11:56 PM 37.0 °F 33.1 °F 86% 30.13 in 10.0 mi Calm Calm - N/A   Clear